Weather Roundup
Issued by NWS Chicago, IL

Home | Current Version | Previous Version | Graphics & Text | Print | Product List | Glossary On
Versions: 1 2 3 4 5 6 7 8 9 10 11 12 13 14 15 16 17 18 19 20 21 22 23 24 25 26 27 28 29 30 31 32 33 34 35 36 37 38 39 40 41 42 43 44 45 46 47 48 49 50
000
NZUS59 KLOT 261709
HRRLOT

CHICAGO AREA WEATHER ROUNDUP
NATIONAL WEATHER SERVICE CHICAGO/ROMEOVILLE IL
1200 PM CDT TUE SEP 26 2017

NOTE: "FAIR" INDICATES FEW OR NO CLOUDS BELOW 12,000 FEET WITH NO
SIGNIFICANT WEATHER AND/OR OBSTRUCTIONS TO VISIBILITY.

* THESE STATIONS ARE NOT UNDER NWS QUALITY CONTROL. THEY ALSO MAY NOT
  REPORT WEATHER SUCH AS PRECIPITATION OR FOG.

ILZ005-006-012>014-019>023-261800-
NORTHEAST ILLINOIS

CITY           SKY/WX    TMP DP  RH WIND       PRES   REMARKS
OHARE          MOSUNNY   88  62  41 SW13      29.94F HX  88
MIDWAY         MOSUNNY   89  62  40 SW14      29.95F HX  89
AURORA         SUNNY     87  66  49 SW9       29.96F HX  89
LANSING*       SUNNY     88  65  45 S15       29.97F HX  90
JOLIET*        SUNNY     89  64  43 SW10G18   29.97S HX  90
WAUKEGAN       MOSUNNY   87  65  47 SW10      29.93F HX  89
DUPAGE AIRPORT SUNNY     87  66  49 SW13G21   29.95F HX  89
WHEELING       SUNNY     89  63  41 SW12      29.95F HX  90
MORRIS*        SUNNY     89  63  41 SW10G20   29.95F HX  89
LEWIS AIRPORT* SUNNY     87  63  43 SW14      29.96F HX  88
NORTHERLY ISL    N/A     87  57  35 S13         N/A  HX  86
$$

WIZ051-052-058>065-066-070>072-261800-
SOUTHEAST WISCONSIN

CITY           SKY/WX    TMP DP  RH WIND       PRES   REMARKS
MILWAUKEE      PTSUNNY   86  66  51 S12       29.93F HX  88
KENOSHA*       CLOUDY    89  63  41 SW13G20   29.94F HX  90
RACINE*        PTSUNNY   82  66  58 SE6       29.95F HX  84
WAUKESHA       MOSUNNY   82  61  47 S8        29.95F HX  83
WEST BEND        N/A     82  61  47 W8G18     29.93S HX  83
$$

INZ001>003-010>013-019-020-261800-
NORTHWEST INDIANA

CITY           SKY/WX    TMP DP  RH WIND       PRES   REMARKS
GARY*          MOSUNNY   90  59  35 SW13      29.97F HX  89
MICHIGAN CITY* NOT AVBL
RENSSELAER*    NOT AVBL
VALPARAISO     SUNNY     90  64  42 SW10      29.99F HX  91
$$

LMZ740>746-261800-
SOUTHERN LAKE MICHIGAN

STATION/POSITION TIME  SKY/WX   TEMP WIND        PRES    VSBY
                                AIR  DIR/SP/G
                 (UTC)          (F)  (DEG/KT/KT) (MB)    (MI)
HARRISON CRIB    1640            81  170/ 11/ 13   N/A
BURNHAM HARBOR   1700            87  180/  8/ 16   N/A
CALUMET HARBOR   1642            86  190/  8/ 16 1013.9F
BURNS HARBOR     1640            84  230/ 10/ 17 1015.2F
MICHIGAN CITY    1640            82  210/ 10/ 12   N/A
$$

ABBREVIATIONS USED IN REMARKS
   TC - TEMPERATURE IN CELSIUS
  WCI - WIND CHILL INDEX
   HX - HEAT INDEX
  VSB - VISIBILITY
$$



USA.gov is the U.S. government's official web portal to all federal, state and local government web resources and services.